Location: Pescara
(42.4765°N, 14.1734°E)
Time: 12:34:12
(UTC+01:00)

ISS - Visible Passes

Search period start: 25 November 2017 00:00
Search period end: 05 December 2017 00:00
Orbit: 401 x 407 km, 51.6° (Epoch: 25 November)

Date Brightness Start Highest point End Pass type
(mag) Time Alt. Az. Time Alt. Az. Time Alt. Az.
26 Nov -2.2 18:23:10 10° SSW 18:25:02 24° S 18:25:02 24° S visible
27 Nov -1.8 17:31:45 10° S 17:33:52 16° SE 17:35:06 14° ESE visible
27 Nov -1.0 19:06:46 10° WSW 19:07:46 18° WSW 19:07:46 18° WSW visible
28 Nov -3.9 18:14:22 10° SW 18:17:38 71° SE 18:17:44 70° SE visible
29 Nov -3.0 17:22:15 10° SSW 17:25:18 37° SE 17:27:37 15° ENE visible
29 Nov -1.3 18:58:47 10° W 19:00:16 22° WNW 19:00:16 22° WNW visible
30 Nov -3.3 18:06:04 10° WSW 18:09:17 52° NNW 18:10:04 40° NNE visible
01 Dec -3.8 17:13:33 10° SW 17:16:50 88° SSE 17:19:49 12° ENE visible
01 Dec -1.3 18:50:58 10° WNW 18:52:28 18° NW 18:52:28 18° NW visible
02 Dec -2.4 17:58:04 10° W 18:01:01 29° NNW 18:02:09 23° NNE visible
03 Dec -3.0 17:05:16 10° WSW 17:08:26 44° NNW 17:11:36 10° NE visible
03 Dec -1.2 18:43:11 10° NW 18:44:26 15° NNW 18:44:26 15° NNW visible
04 Dec -1.9 17:50:13 10° WNW 17:52:48 21° NNW 17:54:02 17° NNE visible
